Weather History for Rush City, MN

Change the Weather History Date:

Thursday, May 29, 2014

  Actual Average (KCBG) Record (KCBG)
Temperature  
Mean Temperature 65 °F -  
Max Temperature 82 °F 72 °F 93 °F (2006)
Min Temperature 48 °F 48 °F 33 °F (1965)
Growing Degree Days 15 (Base 50)    
Moisture  
Dew Point 49 °F    
Average Humidity 58    
Maximum Humidity 90    
Minimum Humidity 27    
Precipitation  
Precipitation 0.00 in - - ()
Sea Level Pressure  
Sea Level Pressure 30.11 in    
Wind  
Wind Speed 2 mph (ESE)    
Max Wind Speed 8 mph    
Max Gust Speed -    
Visibility 10 miles    
Events      
Averages and records for this station are not official NWS values.
T = Trace of Precipitation, MM = Missing Value Source: NWS Daily Summary

Daily Weather History Graph

Daily Weather History Graph

Search for Another Location

Airport:

Trip Planner

Search our weather history database for the weather conditions in past years. The results will help you decide how hot, cold, wet, or windy it might be!

Date:

Astronomy

May. 29, 2014 Rise Set
Actual Time 5:27 AM CDT 8:51 PM CDT
Civil Twilight 4:50 AM CDT 9:28 PM CDT
Nautical Twilight 4:02 AM CDT 10:16 PM CDT
Astronomical Twilight 3:01 AM CDT 11:18 PM CDT
Moon 6:24 AM CDT (5/29) 9:39 PM CDT (5/29)
Length of Visible Light 16h 37m
Length of Day
15h 23m
New Moon, 1% of the Moon is Illuminated
May 29
New Moon
Jun 5
First Quarter
Jun 12
Full
Jun 19
Last Quarter
Jun 27
New

Hourly Weather History & Observations

Time (CDT) Temp. Dew Point Humidity Pressure Visibility Wind Dir Wind Speed Gust Speed Precip Events Conditions
12:15 AM 58.3 °F 47.7 °F 68% 30.10 in 10.0 mi North 3.5 mph - N/A   Scattered Clouds
12:36 AM 56.1 °F 47.8 °F 74% 30.10 in 10.0 mi North 4.6 mph - N/A   Mostly Cloudy
1:15 AM 54.7 °F 47.3 °F 76% 30.11 in 10.0 mi North 3.5 mph - N/A   Mostly Cloudy
1:35 AM 54.1 °F 46.9 °F 77% 30.10 in 10.0 mi Calm Calm - N/A   Mostly Cloudy
1:55 AM 54.0 °F 46.8 °F 77% 30.10 in 10.0 mi Calm Calm - N/A   Mostly Cloudy
2:15 AM 54.1 °F 46.4 °F 75% 30.10 in 10.0 mi NE 3.5 mph - N/A   Mostly Cloudy
2:35 AM 53.2 °F 45.9 °F 76% 30.10 in 10.0 mi NE 4.6 mph - N/A   Mostly Cloudy
2:55 AM 52.7 °F 45.9 °F 78% 30.10 in 10.0 mi NNE 3.5 mph - N/A   Mostly Cloudy
3:15 AM 51.1 °F 46.0 °F 83% 30.11 in 10.0 mi Calm Calm - N/A   Mostly Cloudy
3:35 AM 50.7 °F 46.0 °F 84% 30.11 in 10.0 mi NE 3.5 mph - N/A   Mostly Cloudy
3:55 AM 50.9 °F 46.4 °F 85% 30.11 in 10.0 mi NNE 3.5 mph - N/A   Mostly Cloudy
4:15 AM 50.0 °F 45.5 °F 85% 30.12 in 10.0 mi Calm Calm - N/A   Mostly Cloudy
4:36 AM 49.1 °F 45.3 °F 87% 30.12 in 10.0 mi Calm Calm - N/A   Mostly Cloudy
4:55 AM 48.6 °F 45.1 °F 88% 30.12 in 10.0 mi Calm Calm - N/A   Mostly Cloudy
5:15 AM 48.4 °F 45.3 °F 89% 30.13 in 10.0 mi Calm Calm - N/A   Mostly Cloudy
5:35 AM 48.0 °F 45.0 °F 89% 30.14 in 10.0 mi Calm Calm - N/A   Scattered Clouds
5:56 AM 48.0 °F 45.3 °F 90% 30.15 in 10.0 mi Calm Calm - N/A   Scattered Clouds
6:15 AM 49.1 °F 46.4 °F 90% 30.14 in 10.0 mi NE 3.5 mph - N/A   Scattered Clouds
6:35 AM 49.6 °F 46.4 °F 89% 30.14 in 10.0 mi NE 4.6 mph - N/A   Scattered Clouds
6:56 AM 50.5 °F 46.6 °F 86% 30.14 in 10.0 mi Calm Calm - N/A   Scattered Clouds
7:15 AM 52.2 °F 47.5 °F 84% 30.14 in 10.0 mi Calm Calm - N/A   Scattered Clouds
7:35 AM 53.8 °F 48.0 °F 81% 30.14 in 10.0 mi Calm Calm - N/A   Scattered Clouds
7:56 AM 55.9 °F 49.1 °F 78% 30.14 in 10.0 mi Calm Calm - N/A   Clear
8:35 AM 60.1 °F 50.2 °F 70% 30.14 in 10.0 mi Calm Calm - N/A   Clear
8:56 AM 62.4 °F 50.5 °F 65% 30.14 in 10.0 mi Calm Calm - N/A   Clear
9:15 AM 64.8 °F 51.1 °F 61% 30.14 in 10.0 mi Calm Calm - N/A   Clear
9:35 AM 66.0 °F 52.7 °F 62% 30.14 in 10.0 mi Calm Calm - N/A   Clear
9:56 AM 67.5 °F 52.2 °F 58% 30.14 in 10.0 mi Calm Calm - N/A   Clear
10:15 AM 68.9 °F 52.5 °F 56% 30.15 in 10.0 mi Calm Calm - N/A   Clear
10:35 AM 70.2 °F 52.3 °F 53% 30.14 in 10.0 mi Calm Calm - N/A   Clear
10:56 AM 71.6 °F 52.2 °F 50% 30.14 in 10.0 mi Calm Calm - N/A   Clear
11:15 AM 73.0 °F 51.3 °F 46% 30.14 in 10.0 mi Calm Calm - N/A   Clear
11:35 AM 74.1 °F 50.7 °F 44% 30.14 in 10.0 mi Calm Calm - N/A   Clear
11:56 AM 75.6 °F 51.1 °F 42% 30.13 in 10.0 mi Calm Calm - N/A   Clear
12:15 PM 76.5 °F 46.2 °F 34% 30.13 in 10.0 mi South 3.5 mph - N/A   Clear
12:35 PM 77.5 °F 46.9 °F 34% 30.13 in 10.0 mi Calm Calm - N/A   Clear
12:55 PM 78.6 °F 46.8 °F 32% 30.12 in 10.0 mi South 5.8 mph - N/A   Clear
1:15 PM 79.0 °F 47.5 °F 33% 30.12 in 10.0 mi South 3.5 mph - N/A   Clear
1:36 PM 79.7 °F 47.3 °F 32% 30.12 in 10.0 mi Calm Calm - N/A   Clear
1:55 PM 80.6 °F 47.1 °F 31% 30.11 in 10.0 mi Calm Calm - N/A   Clear
2:15 PM 81.0 °F 48.2 °F 32% 30.11 in 10.0 mi South 6.9 mph - N/A   Clear
2:36 PM 81.0 °F 47.8 °F 31% 30.10 in 10.0 mi South 5.8 mph - N/A   Clear
2:55 PM 81.5 °F 49.3 °F 32% 30.10 in 10.0 mi SSW 4.6 mph - N/A   Clear
3:15 PM 81.5 °F 49.3 °F 32% 30.10 in 10.0 mi South 3.5 mph - N/A   Clear
3:35 PM 82.4 °F 50.0 °F 32% 30.09 in 10.0 mi SE 8.1 mph - N/A   Clear
4:15 PM 82.2 °F 48.9 °F 31% 30.08 in 10.0 mi Calm Calm - N/A   Clear
4:35 PM 82.4 °F 45.5 °F 27% 30.08 in 10.0 mi Calm Calm - N/A   Clear
5:15 PM 82.8 °F 46.4 °F 28% 30.07 in 10.0 mi SE 6.9 mph - N/A   Clear
5:36 PM 82.0 °F 46.9 °F 29% 30.07 in 10.0 mi SE 8.1 mph - N/A   Clear
5:55 PM 82.2 °F 48.4 °F 31% 30.06 in 10.0 mi SSE 5.8 mph - N/A   Clear
6:15 PM 81.5 °F 47.1 °F 30% 30.06 in 10.0 mi SSE 4.6 mph - N/A   Clear
6:35 PM 81.5 °F 48.7 °F 32% 30.06 in 10.0 mi SE 3.5 mph - N/A   Clear
6:55 PM 81.0 °F 48.6 °F 32% 30.06 in 10.0 mi SSE 4.6 mph - N/A   Clear
7:15 PM 80.2 °F 47.7 °F 32% 30.06 in 10.0 mi SE 4.6 mph - N/A   Clear
7:35 PM 79.5 °F 49.1 °F 34% 30.06 in 10.0 mi SE 3.5 mph - N/A   Clear
7:55 PM 77.7 °F 50.0 °F 38% 30.07 in 10.0 mi SE 3.5 mph - N/A   Clear
8:16 PM 76.1 °F 49.6 °F 39% 30.07 in 10.0 mi ESE 3.5 mph - N/A   Clear
8:35 PM 73.8 °F 50.5 °F 44% 30.07 in 10.0 mi Calm Calm - N/A   Clear
8:55 PM 71.4 °F 50.2 °F 47% 30.07 in 10.0 mi Calm Calm - N/A   Clear
9:15 PM 67.3 °F 55.0 °F 65% 30.07 in 10.0 mi Calm Calm - N/A   Clear
9:35 PM 65.3 °F 53.6 °F 66% 30.08 in 10.0 mi Calm Calm - N/A   Clear
9:54 PM 66.4 °F 51.8 °F 59% 30.08 in 10.0 mi Calm Calm - N/A   Clear
10:15 PM 66.4 °F 51.1 °F 58% 30.08 in 10.0 mi Calm Calm - N/A   Clear
10:36 PM 63.7 °F 51.8 °F 65% 30.08 in 10.0 mi Calm Calm - N/A   Clear
10:55 PM 61.7 °F 52.9 °F 73% 30.08 in 10.0 mi Calm Calm - N/A   Clear
11:16 PM 60.8 °F 53.2 °F 76% 30.09 in 10.0 mi Calm Calm - N/A   Clear
11:35 PM 60.1 °F 54.0 °F 80% 30.09 in 10.0 mi Calm Calm - N/A   Clear
11:55 PM 61.5 °F 52.7 °F 73% 30.10 in 10.0 mi Calm Calm - N/A   Scattered Clouds